Portada
METAR-TAF:

METAR-TAF

Aeroports :

Albury, Austràlia

latitud: 36-04-06S, longitud: 146-57-30E, altitud: 164 m

Observació

L'informe es va fer fa 15 minuts, a les 23:11 UTC
Vent 12 kt del Oest/Nord-Oest, variant entre Oest/Nord-Oest i Nord
Temperatura 18°C
Humitat 100%
Pressió 1011 hPa
Visibilitat: 5000 m
Cel cobert a una alçada de 1300 ft
Cel cobert a una alçada de 1900 ft

METAR: YMAY 012311Z AUTO 30012KT 290V350 5000 // OVC013 OVC019 18/18 Q1011

Hora: 10:26 (23:26 UTC)


TAF: manca

Observacions i pronòstics meteorològics de més de 4000 aeroports (METAR i TAF).

Les estacions disponibles són els punts grocs i vermells al mapa.

Posi el ratolí al punt desitjat per veure el nom de l'estació.

Feu clic per veure les observacions i els pronòstics meteorològics.

Per canviar el mapa: feu clic els botons verds amb una creu de color negre per apropar; al botó verd amb un guió per allunyar la imatge; o en les fletxes verdes per a mapes adjacents.


METAR-TAF: